Time,TemperatureF,DewpointF,PressureIn,WindDirection,WindDirectionDegrees,WindSpeedMPH,WindSpeedGustMPH,Humidity,HourlyPrecipIn,Conditions,Clouds,dailyrainin,SolarRadiationWatts/m^2,SoftwareType,DateUTC
2013-10-16 00:02:00,48.0,46.1,29.72,NE,48,0.0,0.0,93,0.00,,OVC023,0.00,0.00,VWS V14.01,2013-10-16 05:02:00,
2013-10-16 00:07:00,48.0,46.1,29.71,NE,48,0.0,0.0,93,0.00,,OVC023,0.00,0.00,VWS V14.01,2013-10-16 05:07:00,
2013-10-16 00:12:00,48.1,46.2,29.71,NE,48,0.0,0.0,93,0.00,,OVC023,0.00,0.00,VWS V14.01,2013-10-16 05:12:00,
2013-10-16 00:17:00,48.1,46.2,29.72,NE,48,0.0,0.0,93,0.00,,OVC023,0.00,0.00,VWS V14.01,2013-10-16 05:17:00,
2013-10-16 00:22:00,48.1,46.2,29.71,NE,48,0.0,0.0,93,0.00,,OVC023,0.00,0.00,VWS V14.01,2013-10-16 05:22:00,
2013-10-16 00:27:00,48.0,46.1,29.71,NE,48,0.0,0.0,93,0.00,,OVC023,0.00,0.00,VWS V14.01,2013-10-16 05:27:00,
2013-10-16 00:32:00,48.0,46.1,29.71,NE,48,0.0,0.0,93,0.00,,OVC021,0.00,0.00,VWS V14.01,2013-10-16 05:32:00,
2013-10-16 00:37:00,48.0,46.1,29.71,NE,48,0.0,0.0,93,0.00,,OVC021,0.00,0.00,VWS V14.01,2013-10-16 05:37:00,
2013-10-16 00:42:00,48.0,46.1,29.72,NE,48,0.0,0.0,93,0.00,,OVC021,0.00,0.00,VWS V14.01,2013-10-16 05:42:00,
2013-10-16 00:47:00,48.0,46.1,29.71,NE,48,0.0,0.0,93,0.00,,OVC017,0.00,0.00,VWS V14.01,2013-10-16 05:47:00,
2013-10-16 00:52:00,48.0,46.1,29.71,NE,48,0.0,1.0,93,0.00,,OVC017,0.00,0.00,VWS V14.01,2013-10-16 05:52:00,
2013-10-16 00:57:00,47.9,46.0,29.71,NE,48,0.0,1.0,93,0.00,,OVC017,0.00,0.00,VWS V14.01,2013-10-16 05:57:00,
2013-10-16 01:02:00,47.9,46.0,29.72,NE,48,0.0,0.0,93,0.00,,OVC015,0.00,0.00,VWS V14.01,2013-10-16 06:02:00,
2013-10-16 01:07:00,47.9,46.0,29.72,NE,48,0.0,0.0,93,0.00,,OVC015,0.00,0.00,VWS V14.01,2013-10-16 06:07:00,
2013-10-16 01:12:00,47.8,45.9,29.72,NE,48,0.0,1.0,93,0.00,,OVC015,0.00,0.00,VWS V14.01,2013-10-16 06:12:00,
2013-10-16 01:17:00,47.8,45.9,29.72,NE,48,0.0,1.0,93,0.00,,OVC015,0.00,0.00,VWS V14.01,2013-10-16 06:17:00,
2013-10-16 01:22:00,47.8,46.2,29.72,NE,48,0.0,0.0,94,0.00,,OVC015,0.00,0.00,VWS V14.01,2013-10-16 06:22:00,
2013-10-16 01:27:00,47.7,46.1,29.72,NE,48,0.0,2.0,94,0.00,,OVC015,0.00,0.00,VWS V14.01,2013-10-16 06:27:00,
2013-10-16 01:32:00,47.7,46.1,29.72,NE,48,0.0,0.0,94,0.00,,OVC013,0.00,0.00,VWS V14.01,2013-10-16 06:32:00,
2013-10-16 01:37:00,47.6,46.0,29.72,NE,48,0.0,0.0,94,0.00,,OVC013,0.00,0.00,VWS V14.01,2013-10-16 06:37:00,
2013-10-16 01:42:00,47.6,46.0,29.72,NE,48,0.0,0.0,94,0.00,,OVC013,0.00,0.00,VWS V14.01,2013-10-16 06:42:00,
2013-10-16 01:47:00,47.5,45.9,29.72,NE,48,0.0,0.0,94,0.00,,OVC013,0.00,0.00,VWS V14.01,2013-10-16 06:47:00,
2013-10-16 01:52:00,47.4,45.8,29.72,NE,48,0.0,0.0,94,0.00,,OVC013,0.00,0.00,VWS V14.01,2013-10-16 06:52:00,
2013-10-16 01:57:00,47.4,46.0,29.72,NE,48,0.0,0.0,95,0.00,,OVC013,0.00,0.00,VWS V14.01,2013-10-16 06:57:00,
2013-10-16 02:02:00,47.3,45.9,29.72,NE,48,0.0,0.0,95,0.00,,OVC014,0.00,0.00,VWS V14.01,2013-10-16 07:02:00,
2013-10-16 02:07:00,47.3,45.9,29.72,NE,48,0.0,1.0,95,0.00,,OVC014,0.00,0.00,VWS V14.01,2013-10-16 07:07:00,
2013-10-16 02:12:00,47.3,45.9,29.72,NE,48,0.0,0.0,95,0.00,,OVC014,0.00,0.00,VWS V14.01,2013-10-16 07:12:00,
2013-10-16 02:17:00,47.2,45.8,29.72,NE,48,0.0,0.0,95,0.00,,OVC014,0.00,0.00,VWS V14.01,2013-10-16 07:17:00,
2013-10-16 02:22:00,47.2,45.8,29.72,NE,48,0.0,0.0,95,0.00,,OVC014,0.00,0.00,VWS V14.01,2013-10-16 07:22:00,
2013-10-16 02:27:00,47.2,45.8,29.72,NE,48,0.0,1.0,95,0.00,,OVC014,0.00,0.00,VWS V14.01,2013-10-16 07:27:00,
2013-10-16 02:32:00,47.1,45.7,29.71,NE,48,0.0,0.0,95,0.00,,OVC014,0.00,0.00,VWS V14.01,2013-10-16 07:32:00,
2013-10-16 02:37:00,47.1,45.7,29.71,NE,48,0.0,0.0,95,0.00,,OVC014,0.00,0.00,VWS V14.01,2013-10-16 07:37:00,
2013-10-16 02:42:00,47.1,45.7,29.71,NE,48,0.0,0.0,95,0.00,,OVC014,0.00,0.00,VWS V14.01,2013-10-16 07:42:00,
2013-10-16 02:47:00,47.1,45.7,29.71,NE,48,0.0,0.0,95,0.00,,OVC014,0.00,0.00,VWS V14.01,2013-10-16 07:47:00,
2013-10-16 02:52:00,47.1,45.7,29.71,NE,48,0.0,0.0,95,0.00,,OVC014,0.00,0.00,VWS V14.01,2013-10-16 07:52:00,
2013-10-16 02:57:00,47.0,45.7,29.71,NE,48,0.0,0.0,95,0.00,,OVC014,0.00,0.00,VWS V14.01,2013-10-16 07:57:00,
2013-10-16 03:02:00,47.0,45.9,29.71,NE,48,0.0,0.0,96,0.00,,OVC016,0.00,0.00,VWS V14.01,2013-10-16 08:02:00,
2013-10-16 03:07:00,47.0,45.9,29.71,NE,48,0.0,0.0,96,0.00,,OVC016,0.00,0.00,VWS V14.01,2013-10-16 08:07:00,
2013-10-16 03:12:00,47.0,45.9,29.71,NE,48,0.0,0.0,96,0.00,,OVC016,0.00,0.00,VWS V14.01,2013-10-16 08:12:00,
2013-10-16 03:17:00,47.1,46.0,29.71,NE,48,0.0,0.0,96,0.00,,OVC016,0.00,0.00,VWS V14.01,2013-10-16 08:17:00,
2013-10-16 03:22:00,47.1,46.0,29.70,NE,48,0.0,0.0,96,0.00,,OVC016,0.00,0.00,VWS V14.01,2013-10-16 08:22:00,
2013-10-16 03:27:00,47.1,46.0,29.70,NE,48,0.0,0.0,96,0.00,,OVC016,0.00,0.00,VWS V14.01,2013-10-16 08:27:00,
2013-10-16 03:32:00,47.0,45.9,29.70,NE,48,0.0,0.0,96,0.00,,OVC011,0.00,0.00,VWS V14.01,2013-10-16 08:32:00,
2013-10-16 03:37:00,47.0,45.9,29.70,NE,48,0.0,0.0,96,0.00,,OVC011,0.00,0.00,VWS V14.01,2013-10-16 08:37:00,
2013-10-16 03:42:00,47.1,46.0,29.70,NE,48,0.0,0.0,96,0.00,,OVC011,0.00,0.00,VWS V14.01,2013-10-16 08:42:00,
2013-10-16 03:47:00,47.1,46.0,29.70,NE,48,0.0,0.0,96,0.00,,OVC012,0.00,0.00,VWS V14.01,2013-10-16 08:47:00,
2013-10-16 03:52:00,47.1,46.0,29.70,NE,48,0.0,0.0,96,0.00,,OVC012,0.00,0.00,VWS V14.01,2013-10-16 08:52:00,
2013-10-16 03:57:00,47.1,46.0,29.70,NE,48,0.0,1.0,96,0.00,,OVC012,0.00,0.00,VWS V14.01,2013-10-16 08:57:00,
2013-10-16 04:02:00,47.1,46.0,29.70,NE,48,0.0,0.0,96,0.00,,OVC009,0.00,0.00,VWS V14.01,2013-10-16 09:02:00,
2013-10-16 04:07:00,47.1,46.0,29.70,NE,48,0.0,0.0,96,0.00,,OVC009,0.00,0.00,VWS V14.01,2013-10-16 09:07:00,
2013-10-16 04:12:00,47.1,46.0,29.70,NE,48,0.0,1.0,96,0.00,,OVC009,0.00,0.00,VWS V14.01,2013-10-16 09:12:00,
2013-10-16 04:17:00,47.1,46.0,29.70,NE,48,0.0,1.0,96,0.00,,OVC009,0.00,0.00,VWS V14.01,2013-10-16 09:17:00,
2013-10-16 04:22:00,47.1,46.0,29.71,NE,48,0.0,0.0,96,0.00,,OVC009,0.00,0.00,VWS V14.01,2013-10-16 09:22:00,
2013-10-16 04:27:00,47.1,46.0,29.70,NE,48,0.0,0.0,96,0.00,,OVC009,0.00,0.00,VWS V14.01,2013-10-16 09:27:00,
2013-10-16 04:31:00,47.1,46.0,29.70,NE,48,0.0,0.0,96,0.00,,RA,0.00,0.00,VWS V14.01,2013-10-16 09:31:00,
2013-10-16 04:36:00,47.1,46.0,29.71,NE,48,0.0,0.0,96,0.00,,RA,0.00,0.00,VWS V14.01,2013-10-16 09:36:00,
2013-10-16 04:41:00,47.1,46.0,29.71,NE,48,0.0,0.0,96,0.00,,RA,0.00,0.00,VWS V14.01,2013-10-16 09:41:00,
2013-10-16 04:46:00,47.1,46.0,29.71,NE,48,0.0,0.0,96,0.00,,OVC045,0.00,0.00,VWS V14.01,2013-10-16 09:46:00,
2013-10-16 04:51:00,47.1,46.3,29.71,NE,48,0.0,2.0,97,0.00,,OVC045,0.00,0.00,VWS V14.01,2013-10-16 09:51:00,
2013-10-16 04:56:00,47.2,46.4,29.71,NE,48,0.0,2.0,97,0.00,,OVC045,0.00,0.00,VWS V14.01,2013-10-16 09:56:00,
2013-10-16 05:01:00,47.2,46.4,29.71,NE,48,0.0,0.0,97,0.00,,OVC012,0.00,0.00,VWS V14.01,2013-10-16 10:01:00,
2013-10-16 05:06:00,47.2,46.4,29.72,NE,48,0.0,1.0,97,0.00,,OVC012,0.00,0.00,VWS V14.01,2013-10-16 10:06:00,
2013-10-16 05:11:00,47.3,46.5,29.71,NE,48,1.0,1.0,97,0.00,,OVC012,0.00,0.00,VWS V14.01,2013-10-16 10:11:00,
2013-10-16 05:16:00,47.3,46.5,29.72,West,265,0.0,4.0,97,0.00,,OVC012,0.00,0.00,VWS V14.01,2013-10-16 10:16:00,
2013-10-16 05:21:00,47.3,46.2,29.72,WSW,257,1.0,3.0,96,0.00,,OVC012,0.00,0.00,VWS V14.01,2013-10-16 10:21:00,
2013-10-16 05:26:00,47.3,46.2,29.72,West,273,0.0,6.0,96,0.00,,OVC012,0.00,0.00,VWS V14.01,2013-10-16 10:26:00,
2013-10-16 05:31:00,47.2,46.1,29.72,West,277,0.0,0.0,96,0.00,,OVC014,0.00,0.00,VWS V14.01,2013-10-16 10:31:00,
2013-10-16 05:36:00,47.2,46.1,29.72,West,271,0.0,2.0,96,0.00,,OVC014,0.00,0.00,VWS V14.01,2013-10-16 10:36:00,
2013-10-16 05:41:00,47.2,46.1,29.72,NE,41,0.0,2.0,96,0.00,,OVC014,0.00,0.00,VWS V14.01,2013-10-16 10:41:00,
2013-10-16 05:46:00,47.2,46.1,29.72,North,360,0.0,4.0,96,0.00,,OVC012,0.00,0.00,VWS V14.01,2013-10-16 10:46:00,
2013-10-16 05:51:00,47.2,46.1,29.72,North,360,0.0,0.0,96,0.00,,OVC012,0.00,0.00,VWS V14.01,2013-10-16 10:51:00,
2013-10-16 05:56:00,47.3,46.2,29.72,North,360,0.0,2.0,96,0.00,,OVC012,0.00,0.00,VWS V14.01,2013-10-16 10:56:00,
2013-10-16 06:01:00,47.2,46.1,29.72,West,280,0.0,0.0,96,0.00,,OVC012,0.00,0.00,VWS V14.01,2013-10-16 11:01:00,
2013-10-16 06:06:00,47.3,46.2,29.72,NW,326,0.0,2.0,96,0.00,,OVC012,0.00,0.00,VWS V14.01,2013-10-16 11:06:00,
2013-10-16 06:11:00,47.3,46.2,29.72,NW,326,0.0,0.0,96,0.00,,OVC012,0.00,0.00,VWS V14.01,2013-10-16 11:11:00,
2013-10-16 06:16:00,47.3,46.2,29.72,NW,326,0.0,0.0,96,0.00,,OVC012,0.00,0.00,VWS V14.01,2013-10-16 11:16:00,
2013-10-16 06:21:00,47.3,46.2,29.72,NW,326,0.0,1.0,96,0.00,,OVC012,0.00,0.00,VWS V14.01,2013-10-16 11:21:00,
2013-10-16 06:26:00,47.3,46.2,29.72,NW,326,0.0,1.0,96,0.00,,OVC012,0.00,0.00,VWS V14.01,2013-10-16 11:26:00,
2013-10-16 06:31:00,47.4,46.3,29.73,NW,314,0.0,1.0,96,0.00,,OVC012,0.00,0.00,VWS V14.01,2013-10-16 11:31:00,
2013-10-16 06:36:00,47.4,46.3,29.73,WSW,251,2.0,6.0,96,0.00,,OVC012,0.00,0.00,VWS V14.01,2013-10-16 11:36:00,
2013-10-16 06:41:00,47.4,46.3,29.73,ESE,121,1.0,1.0,96,0.00,,OVC012,0.00,0.00,VWS V14.01,2013-10-16 11:41:00,
2013-10-16 06:46:00,47.4,46.3,29.73,West,263,1.0,7.0,96,0.00,,OVC010,0.00,0.00,VWS V14.01,2013-10-16 11:46:00,
2013-10-16 06:51:00,47.4,46.3,29.73,West,263,2.0,2.0,96,0.00,,OVC010,0.00,0.00,VWS V14.01,2013-10-16 11:51:00,
2013-10-16 06:56:00,47.5,46.4,29.73,SW,232,1.0,3.0,96,0.00,,OVC010,0.00,0.00,VWS V14.01,2013-10-16 11:56:00,
2013-10-16 07:01:00,47.5,46.4,29.73,West,267,0.0,0.0,96,0.00,,OVC008,0.00,0.00,VWS V14.01,2013-10-16 12:01:00,
2013-10-16 07:06:00,47.5,46.4,29.73,WSW,250,0.0,3.0,96,0.00,,OVC008,0.00,0.00,VWS V14.01,2013-10-16 12:06:00,
2013-10-16 07:11:00,47.5,46.4,29.73,West,259,0.0,0.0,96,0.00,,OVC008,0.00,0.00,VWS V14.01,2013-10-16 12:11:00,
2013-10-16 07:16:00,47.6,46.5,29.73,WSW,245,0.0,2.0,96,0.00,,OVC008,0.00,0.00,VWS V14.01,2013-10-16 12:16:00,
2013-10-16 07:21:00,47.6,46.5,29.73,WSW,245,0.0,0.0,96,0.00,,OVC008,0.00,0.00,VWS V14.01,2013-10-16 12:21:00,
2013-10-16 07:26:00,47.6,46.5,29.73,WSW,245,1.0,2.0,96,0.00,,OVC008,0.00,0.00,VWS V14.01,2013-10-16 12:26:00,
2013-10-16 07:31:00,47.6,46.5,29.73,WSW,250,0.0,0.0,96,0.00,,OVC008,0.00,5.00,VWS V14.01,2013-10-16 12:31:00,
2013-10-16 07:36:00,47.6,46.5,29.74,South,178,0.0,2.0,96,0.00,,OVC008,0.00,7.00,VWS V14.01,2013-10-16 12:36:00,
2013-10-16 07:41:00,47.6,46.5,29.74,South,177,0.0,0.0,96,0.00,,OVC008,0.00,7.00,VWS V14.01,2013-10-16 12:41:00,
2013-10-16 07:46:00,47.7,46.9,29.74,WNW,296,1.0,3.0,97,0.00,,OVC008,0.00,7.00,VWS V14.01,2013-10-16 12:46:00,
2013-10-16 07:51:00,47.7,46.9,29.74,WNW,296,0.0,0.0,97,0.00,,OVC008,0.00,12.00,VWS V14.01,2013-10-16 12:51:00,
2013-10-16 07:56:00,47.8,47.0,29.74,SW,217,0.0,1.0,97,0.00,,OVC008,0.00,19.00,VWS V14.01,2013-10-16 12:56:00,
2013-10-16 08:01:00,47.8,47.0,29.75,SE,132,0.0,1.0,97,0.00,,OVC008,0.00,19.00,VWS V14.01,2013-10-16 13:01:00,
2013-10-16 08:06:00,47.9,47.1,29.75,SE,132,0.0,1.0,97,0.00,,OVC008,0.00,19.00,VWS V14.01,2013-10-16 13:06:00,
2013-10-16 08:11:00,47.9,46.8,29.75,SE,132,0.0,0.0,96,0.00,,OVC008,0.00,19.00,VWS V14.01,2013-10-16 13:11:00,
2013-10-16 08:16:00,48.0,47.2,29.75,SW,222,0.0,2.0,97,0.00,,OVC008,0.00,26.00,VWS V14.01,2013-10-16 13:16:00,
2013-10-16 08:21:00,48.0,47.2,29.75,SW,223,0.0,1.0,97,0.00,,OVC008,0.00,26.00,VWS V14.01,2013-10-16 13:21:00,
2013-10-16 08:26:00,48.1,47.3,29.75,SW,223,0.0,1.0,97,0.00,,OVC008,0.00,28.00,VWS V14.01,2013-10-16 13:26:00,
2013-10-16 08:31:00,48.1,47.3,29.75,SW,223,0.0,0.0,97,0.00,,OVC008,0.00,37.00,VWS V14.01,2013-10-16 13:31:00,
2013-10-16 08:36:00,48.2,47.4,29.75,SW,223,0.0,1.0,97,0.00,,OVC008,0.00,46.00,VWS V14.01,2013-10-16 13:36:00,
2013-10-16 08:41:00,48.3,47.5,29.75,SW,235,2.0,2.0,97,0.00,,OVC008,0.00,40.00,VWS V14.01,2013-10-16 13:41:00,
2013-10-16 08:46:00,48.4,47.6,29.75,SW,232,0.0,2.0,97,0.00,,OVC012,0.00,37.00,VWS V14.01,2013-10-16 13:46:00,
2013-10-16 08:51:00,48.5,47.7,29.75,NW,306,1.0,2.0,97,0.00,,OVC012,0.00,39.00,VWS V14.01,2013-10-16 13:51:00,
2013-10-16 08:56:00,48.5,47.7,29.75,NW,323,1.0,4.0,97,0.00,,OVC012,0.00,30.00,VWS V14.01,2013-10-16 13:56:00,
2013-10-16 09:01:00,48.6,47.8,29.76,NNW,334,0.0,2.0,97,0.00,,OVC010,0.00,32.00,VWS V14.01,2013-10-16 14:01:00,
2013-10-16 09:06:00,48.6,47.8,29.76,NNW,335,0.0,2.0,97,0.00,,OVC010,0.00,33.00,VWS V14.01,2013-10-16 14:06:00,
2013-10-16 09:11:00,48.6,47.8,29.76,NW,324,0.0,2.0,97,0.00,,OVC010,0.00,30.00,VWS V14.01,2013-10-16 14:11:00,
2013-10-16 09:16:00,48.6,47.8,29.76,West,266,0.0,3.0,97,0.00,,OVC010,0.00,37.00,VWS V14.01,2013-10-16 14:16:00,
2013-10-16 09:21:00,48.6,47.8,29.76,West,266,0.0,1.0,97,0.00,,OVC010,0.00,51.00,VWS V14.01,2013-10-16 14:21:00,
2013-10-16 09:26:00,48.7,47.9,29.77,NW,321,0.0,4.0,97,0.00,,OVC010,0.00,47.00,VWS V14.01,2013-10-16 14:26:00,
2013-10-16 09:31:00,48.7,47.9,29.77,NW,321,0.0,1.0,97,0.00,,OVC008,0.00,54.00,VWS V14.01,2013-10-16 14:31:00,
2013-10-16 09:36:00,48.8,48.0,29.77,WNW,289,5.0,5.0,97,0.00,,OVC008,0.00,81.00,VWS V14.01,2013-10-16 14:36:00,
2013-10-16 09:41:00,48.8,48.0,29.77,West,259,0.0,3.0,97,0.00,,OVC008,0.00,90.00,VWS V14.01,2013-10-16 14:41:00,
2013-10-16 09:46:00,48.9,48.1,29.77,NNW,339,3.0,5.0,97,0.00,,OVC035,0.00,69.00,VWS V14.01,2013-10-16 14:46:00,
2013-10-16 09:51:00,49.0,47.9,29.77,WNW,300,0.0,0.0,96,0.00,,OVC035,0.00,77.00,VWS V14.01,2013-10-16 14:51:00,
2013-10-16 09:56:00,49.1,48.0,29.77,WNW,300,0.0,2.0,96,0.00,,OVC035,0.00,97.00,VWS V14.01,2013-10-16 14:56:00,
2013-10-16 10:01:00,49.3,48.2,29.77,North,355,2.0,4.0,96,0.00,,OVC035,0.00,93.00,VWS V14.01,2013-10-16 15:01:00,
2013-10-16 10:06:00,49.5,48.1,29.78,NNE,24,1.0,5.0,95,0.00,,OVC035,0.00,91.00,VWS V14.01,2013-10-16 15:06:00,
2013-10-16 10:11:00,49.7,48.3,29.78,WNW,296,5.0,5.0,95,0.00,,OVC035,0.00,90.00,VWS V14.01,2013-10-16 15:11:00,
2013-10-16 10:16:00,49.8,47.9,29.78,North,9,1.0,8.0,93,0.00,,OVC035,0.00,91.00,VWS V14.01,2013-10-16 15:16:00,
2013-10-16 10:21:00,49.9,48.0,29.78,WNW,291,0.0,5.0,93,0.00,,OVC035,0.00,70.00,VWS V14.01,2013-10-16 15:21:00,
2013-10-16 10:26:00,50.1,47.9,29.78,North,355,4.0,5.0,92,0.00,,OVC035,0.00,63.00,VWS V14.01,2013-10-16 15:26:00,
2013-10-16 10:31:00,50.1,47.6,29.78,North,355,1.0,4.0,91,0.00,,OVC040,0.00,58.00,VWS V14.01,2013-10-16 15:31:00,
2013-10-16 10:36:00,50.1,47.3,29.79,NNW,340,1.0,5.0,90,0.00,,OVC040,0.00,47.00,VWS V14.01,2013-10-16 15:36:00,
2013-10-16 10:41:00,50.2,47.4,29.79,NW,312,0.0,1.0,90,0.00,,OVC040,0.00,49.00,VWS V14.01,2013-10-16 15:41:00,
2013-10-16 10:46:00,50.1,47.3,29.79,WNW,293,0.0,5.0,90,0.00,,OVC017,0.00,44.00,VWS V14.01,2013-10-16 15:46:00,
2013-10-16 10:51:00,50.1,47.0,29.80,NW,306,0.0,1.0,89,0.00,,OVC017,0.00,40.00,VWS V14.01,2013-10-16 15:51:00,
2013-10-16 10:56:00,50.1,46.7,29.80,NNW,346,1.0,5.0,88,0.00,,OVC017,0.00,49.00,VWS V14.01,2013-10-16 15:56:00,
2013-10-16 11:01:00,50.1,47.0,29.80,North,355,0.0,2.0,89,0.00,,OVC018,0.00,53.00,VWS V14.01,2013-10-16 16:01:00,
2013-10-16 11:06:00,50.2,47.1,29.80,NW,312,0.0,5.0,89,0.00,,OVC018,0.00,53.00,VWS V14.01,2013-10-16 16:06:00,
2013-10-16 11:11:00,50.2,47.1,29.80,NNE,12,0.0,1.0,89,0.00,,OVC018,0.00,40.00,VWS V14.01,2013-10-16 16:11:00,
2013-10-16 11:16:00,50.2,46.8,29.80,NNW,345,2.0,9.0,88,0.00,,OVC018,0.00,56.00,VWS V14.01,2013-10-16 16:16:00,
2013-10-16 11:21:00,50.2,46.8,29.81,North,360,3.0,4.0,88,0.00,,OVC018,0.00,49.00,VWS V14.01,2013-10-16 16:21:00,
2013-10-16 11:26:00,50.1,46.7,29.81,North,355,0.0,6.0,88,0.00,,OVC018,0.00,53.00,VWS V14.01,2013-10-16 16:26:00,
2013-10-16 11:31:00,50.1,46.7,29.81,North,355,3.0,6.0,88,0.00,,OVC016,0.00,54.00,VWS V14.01,2013-10-16 16:31:00,
2013-10-16 11:36:00,50.0,46.6,29.81,NNE,16,7.0,7.0,88,0.00,,OVC016,0.00,46.00,VWS V14.01,2013-10-16 16:36:00,
2013-10-16 11:41:00,49.9,46.2,29.81,NNW,331,0.0,1.0,87,0.00,,OVC016,0.00,44.00,VWS V14.01,2013-10-16 16:41:00,
2013-10-16 11:46:00,49.9,46.2,29.82,NNW,327,1.0,5.0,87,0.00,,OVC020,0.00,44.00,VWS V14.01,2013-10-16 16:46:00,
2013-10-16 11:51:00,49.9,46.2,29.82,NW,317,0.0,1.0,87,0.00,,OVC020,0.00,56.00,VWS V14.01,2013-10-16 16:51:00,
2013-10-16 11:56:00,49.9,46.2,29.82,NW,317,1.0,1.0,87,0.00,,OVC020,0.00,54.00,VWS V14.01,2013-10-16 16:56:00,
2013-10-16 12:01:00,49.9,46.2,29.82,North,355,1.0,1.0,87,0.00,,OVC024,0.00,58.00,VWS V14.01,2013-10-16 17:01:00,
2013-10-16 12:06:00,50.0,46.3,29.82,North,11,5.0,7.0,87,0.00,,OVC024,0.00,62.00,VWS V14.01,2013-10-16 17:06:00,
2013-10-16 12:11:00,50.0,46.3,29.82,North,5,1.0,1.0,87,0.00,,OVC024,0.00,69.00,VWS V14.01,2013-10-16 17:11:00,
2013-10-16 12:16:00,50.1,46.4,29.82,NNW,331,1.0,4.0,87,0.00,,OVC024,0.00,74.00,VWS V14.01,2013-10-16 17:16:00,
2013-10-16 12:21:00,50.2,46.5,29.82,NNW,331,0.0,1.0,87,0.00,,OVC024,0.00,63.00,VWS V14.01,2013-10-16 17:21:00,
2013-10-16 12:26:00,50.2,46.5,29.82,NNW,331,0.0,2.0,87,0.00,,OVC024,0.00,56.00,VWS V14.01,2013-10-16 17:26:00,
2013-10-16 12:31:00,50.3,46.6,29.82,NNW,331,0.0,1.0,87,0.00,,OVC024,0.00,79.00,VWS V14.01,2013-10-16 17:31:00,
2013-10-16 12:36:00,50.4,46.7,29.82,NNW,332,0.0,5.0,87,0.00,,OVC024,0.00,88.00,VWS V14.01,2013-10-16 17:36:00,
2013-10-16 12:41:00,50.5,46.5,29.81,NW,317,0.0,1.0,86,0.00,,OVC024,0.00,88.00,VWS V14.01,2013-10-16 17:41:00,
2013-10-16 12:46:00,50.5,46.5,29.81,NW,317,0.0,3.0,86,0.00,,OVC026,0.00,84.00,VWS V14.01,2013-10-16 17:46:00,
2013-10-16 12:51:00,50.6,46.3,29.81,WSW,255,3.0,7.0,85,0.00,,OVC026,0.00,81.00,VWS V14.01,2013-10-16 17:51:00,
2013-10-16 12:56:00,50.6,46.3,29.81,NNW,330,0.0,8.0,85,0.00,,OVC026,0.00,156.00,VWS V14.01,2013-10-16 17:56:00,
2013-10-16 13:01:00,50.7,46.0,29.81,WNW,298,2.0,2.0,84,0.00,,OVC038,0.00,121.00,VWS V14.01,2013-10-16 18:01:00,
2013-10-16 13:06:00,50.8,46.2,29.81,NNW,336,4.0,4.0,84,0.00,,OVC038,0.00,79.00,VWS V14.01,2013-10-16 18:06:00,
2013-10-16 13:11:00,50.9,46.2,29.81,NNW,339,3.0,5.0,84,0.00,,OVC038,0.00,70.00,VWS V14.01,2013-10-16 18:11:00,
2013-10-16 13:16:00,50.9,46.2,29.81,WNW,292,4.0,6.0,84,0.00,,OVC038,0.00,69.00,VWS V14.01,2013-10-16 18:16:00,
2013-10-16 13:21:00,50.8,46.2,29.81,WNW,291,0.0,4.0,84,0.00,,OVC038,0.00,69.00,VWS V14.01,2013-10-16 18:21:00,
2013-10-16 13:26:00,50.8,46.2,29.81,North,5,5.0,5.0,84,0.00,,OVC038,0.00,153.00,VWS V14.01,2013-10-16 18:26:00,
2013-10-16 13:27:00,50.8,46.2,29.81,North,360,5.0,8.0,84,0.00,,OVC038,0.00,165.00,VWS V14.01,2013-10-16 18:27:00,
2013-10-16 13:32:00,51.0,46.3,29.81,WNW,283,0.0,5.0,84,0.00,,OVC029,0.00,151.00,VWS V14.01,2013-10-16 18:32:00,
2013-10-16 13:37:00,51.0,46.3,29.80,North,355,6.0,9.0,84,0.00,,OVC029,0.00,111.00,VWS V14.01,2013-10-16 18:37:00,
2013-10-16 13:42:00,51.1,46.1,29.80,WNW,283,0.0,3.0,83,0.00,,OVC029,0.00,146.00,VWS V14.01,2013-10-16 18:42:00,
2013-10-16 13:47:00,51.2,46.2,29.81,NW,306,2.0,4.0,83,0.00,,OVC022,0.00,174.00,VWS V14.01,2013-10-16 18:47:00,
2013-10-16 13:52:00,51.3,46.0,29.80,NW,312,1.0,1.0,82,0.00,,OVC022,0.00,169.00,VWS V14.01,2013-10-16 18:52:00,
2013-10-16 13:57:00,51.4,46.1,29.81,WNW,302,0.0,5.0,82,0.00,,OVC022,0.00,171.00,VWS V14.01,2013-10-16 18:57:00,
2013-10-16 14:02:00,51.7,47.0,29.81,NNW,344,0.0,1.0,84,0.00,,OVC042,0.00,181.00,VWS V14.01,2013-10-16 19:02:00,
2013-10-16 14:07:00,51.8,46.5,29.81,SSW,205,5.0,5.0,82,0.00,,OVC042,0.00,127.00,VWS V14.01,2013-10-16 19:07:00,
2013-10-16 14:12:00,52.0,46.4,29.81,NW,309,0.0,4.0,81,0.00,,OVC042,0.00,132.00,VWS V14.01,2013-10-16 19:12:00,
2013-10-16 14:17:00,52.1,46.5,29.81,NNW,346,1.0,6.0,81,0.00,,OVC042,0.00,134.00,VWS V14.01,2013-10-16 19:17:00,
2013-10-16 14:22:00,52.1,46.5,29.81,NNW,344,4.0,5.0,81,0.01,,OVC042,0.01,123.00,VWS V14.01,2013-10-16 19:22:00,
2013-10-16 14:27:00,52.1,46.1,29.81,NW,311,0.0,5.0,80,0.01,,OVC042,0.01,118.00,VWS V14.01,2013-10-16 19:27:00,
2013-10-16 14:32:00,52.1,45.8,29.81,NW,326,0.0,1.0,79,0.01,,OVC042,0.01,104.00,VWS V14.01,2013-10-16 19:32:00,
2013-10-16 14:37:00,52.2,46.2,29.81,NW,315,0.0,5.0,80,0.01,,OVC042,0.01,97.00,VWS V14.01,2013-10-16 19:37:00,
2013-10-16 14:42:00,52.2,46.5,29.81,WSW,246,0.0,2.0,81,0.01,,OVC042,0.01,90.00,VWS V14.01,2013-10-16 19:42:00,
2013-10-16 14:47:00,52.3,47.0,29.81,West,263,0.0,4.0,82,0.01,,OVC042,0.01,90.00,VWS V14.01,2013-10-16 19:47:00,
2013-10-16 14:52:00,52.4,46.8,29.81,WSW,238,0.0,0.0,81,0.01,,OVC042,0.01,86.00,VWS V14.01,2013-10-16 19:52:00,
2013-10-16 14:57:00,52.4,46.4,29.81,NNW,348,0.0,4.0,80,0.01,,OVC042,0.01,77.00,VWS V14.01,2013-10-16 19:57:00,
2013-10-16 15:02:00,52.3,46.3,29.81,NNW,348,0.0,2.0,80,0.01,,OVC044,0.01,74.00,VWS V14.01,2013-10-16 20:02:00,
2013-10-16 15:07:00,52.3,46.7,29.81,NW,322,3.0,3.0,81,0.01,,OVC044,0.01,56.00,VWS V14.01,2013-10-16 20:07:00,
2013-10-16 15:12:00,52.2,45.9,29.81,SW,236,0.0,1.0,79,0.01,,OVC044,0.01,63.00,VWS V14.01,2013-10-16 20:12:00,
2013-10-16 15:17:00,52.1,45.8,29.81,West,280,0.0,3.0,79,0.01,,OVC044,0.01,54.00,VWS V14.01,2013-10-16 20:17:00,
2013-10-16 15:22:00,52.1,46.1,29.82,NW,313,2.0,2.0,80,0.00,,OVC044,0.01,46.00,VWS V14.01,2013-10-16 20:22:00,
2013-10-16 15:27:00,52.0,46.0,29.82,West,261,0.0,3.0,80,0.00,,OVC044,0.01,47.00,VWS V14.01,2013-10-16 20:27:00,
2013-10-16 15:32:00,51.9,45.9,29.82,West,272,1.0,2.0,80,0.00,,OVC029,0.01,49.00,VWS V14.01,2013-10-16 20:32:00,
2013-10-16 15:37:00,51.9,45.9,29.82,NNW,327,2.0,3.0,80,0.00,,OVC029,0.01,54.00,VWS V14.01,2013-10-16 20:37:00,
2013-10-16 15:42:00,51.8,45.8,29.82,NNW,342,0.0,2.0,80,0.00,,OVC029,0.01,60.00,VWS V14.01,2013-10-16 20:42:00,
2013-10-16 15:47:00,51.8,45.8,29.82,NNW,336,0.0,3.0,80,0.00,,OVC025,0.01,51.00,VWS V14.01,2013-10-16 20:47:00,
2013-10-16 15:52:00,51.7,45.7,29.82,NW,319,2.0,2.0,80,0.00,,OVC025,0.01,35.00,VWS V14.01,2013-10-16 20:52:00,
2013-10-16 15:57:00,51.7,45.7,29.82,SSW,213,0.0,4.0,80,0.00,,OVC025,0.01,40.00,VWS V14.01,2013-10-16 20:57:00,
2013-10-16 16:02:00,51.7,46.1,29.82,SW,230,1.0,3.0,81,0.00,,OVC033,0.01,46.00,VWS V14.01,2013-10-16 21:02:00,
2013-10-16 16:07:00,51.6,46.0,29.82,West,263,0.0,3.0,81,0.00,,OVC033,0.01,39.00,VWS V14.01,2013-10-16 21:07:00,
2013-10-16 16:12:00,51.5,45.9,29.82,West,264,0.0,1.0,81,0.00,,OVC033,0.01,35.00,VWS V14.01,2013-10-16 21:12:00,
2013-10-16 16:17:00,51.4,45.5,29.82,NNW,346,0.0,5.0,80,0.00,,OVC033,0.01,40.00,VWS V14.01,2013-10-16 21:17:00,
2013-10-16 16:22:00,51.4,45.1,29.82,WNW,290,1.0,3.0,79,0.00,,OVC033,0.01,42.00,VWS V14.01,2013-10-16 21:22:00,
2013-10-16 16:27:00,51.3,45.0,29.82,NW,304,0.0,5.0,79,0.00,,OVC033,0.01,44.00,VWS V14.01,2013-10-16 21:27:00,
2013-10-16 16:32:00,51.2,44.9,29.82,NW,325,0.0,1.0,79,0.00,,OVC033,0.01,42.00,VWS V14.01,2013-10-16 21:32:00,
2013-10-16 16:37:00,51.2,44.9,29.82,NNW,335,0.0,2.0,79,0.00,,OVC033,0.01,37.00,VWS V14.01,2013-10-16 21:37:00,
2013-10-16 16:42:00,51.2,44.9,29.82,NNW,335,0.0,2.0,79,0.00,,OVC033,0.01,30.00,VWS V14.01,2013-10-16 21:42:00,
2013-10-16 16:47:00,51.2,44.9,29.83,NNW,335,0.0,2.0,79,0.00,,OVC033,0.01,26.00,VWS V14.01,2013-10-16 21:47:00,
2013-10-16 16:52:00,51.2,44.9,29.82,SW,235,0.0,1.0,79,0.00,,OVC033,0.01,23.00,VWS V14.01,2013-10-16 21:52:00,
2013-10-16 16:57:00,51.2,44.9,29.83,SW,235,0.0,1.0,79,0.00,,OVC033,0.01,19.00,VWS V14.01,2013-10-16 21:57:00,
2013-10-16 17:02:00,51.2,44.9,29.83,SW,235,0.0,0.0,79,0.00,,OVC032,0.01,28.00,VWS V14.01,2013-10-16 22:02:00,
2013-10-16 17:07:00,51.1,44.8,29.83,WSW,238,0.0,3.0,79,0.00,,OVC032,0.01,35.00,VWS V14.01,2013-10-16 22:07:00,
2013-10-16 17:11:00,51.1,44.8,29.83,WSW,240,0.0,1.0,79,0.00,,OVC032,0.01,28.00,VWS V14.01,2013-10-16 22:11:00,
2013-10-16 17:16:00,51.1,45.2,29.83,WSW,240,0.0,1.0,80,0.00,,OVC032,0.01,21.00,VWS V14.01,2013-10-16 22:16:00,
2013-10-16 17:21:00,51.1,45.5,29.83,WSW,246,0.0,2.0,81,0.00,,OVC032,0.01,16.00,VWS V14.01,2013-10-16 22:21:00,
2013-10-16 17:26:00,51.1,45.5,29.83,SSW,194,0.0,3.0,81,0.00,,OVC032,0.01,14.00,VWS V14.01,2013-10-16 22:26:00,
2013-10-16 17:31:00,51.1,45.2,29.83,SSW,206,0.0,1.0,80,0.00,,OVC032,0.01,16.00,VWS V14.01,2013-10-16 22:31:00,
2013-10-16 17:36:00,51.0,45.4,29.84,West,265,1.0,3.0,81,0.00,,OVC032,0.01,7.00,VWS V14.01,2013-10-16 22:36:00,
2013-10-16 17:41:00,50.9,45.0,29.84,NNW,337,0.0,3.0,80,0.00,,OVC032,0.01,5.00,VWS V14.01,2013-10-16 22:41:00,
2013-10-16 17:46:00,50.9,45.0,29.84,NNW,342,0.0,7.0,80,0.00,,OVC035,0.01,0.00,VWS V14.01,2013-10-16 22:46:00,
2013-10-16 17:51:00,50.7,44.4,29.84,NE,42,0.0,2.0,79,0.00,,OVC035,0.01,0.00,VWS V14.01,2013-10-16 22:51:00,
2013-10-16 17:56:00,50.6,44.3,29.84,West,281,0.0,6.0,79,0.00,,OVC035,0.01,0.00,VWS V14.01,2013-10-16 22:56:00,
2013-10-16 18:01:00,50.5,43.9,29.84,NNW,337,0.0,5.0,78,0.00,,OVC033,0.01,0.00,VWS V14.01,2013-10-16 23:01:00,
2013-10-16 18:06:00,50.4,44.1,29.84,NNW,337,0.0,5.0,79,0.00,,OVC033,0.01,0.00,VWS V14.01,2013-10-16 23:06:00,
2013-10-16 18:11:00,50.3,44.0,29.84,NW,319,0.0,2.0,79,0.00,,OVC033,0.01,0.00,VWS V14.01,2013-10-16 23:11:00,
2013-10-16 18:16:00,50.2,44.0,29.85,WNW,303,0.0,3.0,79,0.00,,OVC033,0.01,0.00,VWS V14.01,2013-10-16 23:16:00,
2013-10-16 18:21:00,50.1,43.8,29.85,NW,316,2.0,2.0,79,0.00,,OVC033,0.01,0.00,VWS V14.01,2013-10-16 23:21:00,
2013-10-16 18:26:00,50.0,43.8,29.85,NW,319,0.0,5.0,79,0.00,,OVC033,0.01,0.00,VWS V14.01,2013-10-16 23:26:00,
2013-10-16 18:31:00,49.9,43.7,29.85,North,360,1.0,5.0,79,0.00,,OVC027,0.01,0.00,VWS V14.01,2013-10-16 23:31:00,
2013-10-16 18:36:00,49.8,43.6,29.85,SW,225,2.0,5.0,79,0.00,,OVC027,0.01,0.00,VWS V14.01,2013-10-16 23:36:00,
2013-10-16 18:41:00,49.6,43.4,29.86,NNW,344,0.0,4.0,79,0.00,,OVC027,0.01,0.00,VWS V14.01,2013-10-16 23:41:00,
2013-10-16 18:46:00,49.5,43.3,29.86,NW,323,1.0,6.0,79,0.00,,OVC034,0.01,0.00,VWS V14.01,2013-10-16 23:46:00,
2013-10-16 18:51:00,49.4,43.5,29.86,NNW,330,4.0,8.0,80,0.00,,OVC034,0.01,0.00,VWS V14.01,2013-10-16 23:51:00,
2013-10-16 18:56:00,49.2,43.3,29.86,NW,323,1.0,8.0,80,0.00,,OVC034,0.01,0.00,VWS V14.01,2013-10-16 23:56:00,
2013-10-16 19:01:00,49.1,43.2,29.87,NW,304,0.0,1.0,80,0.00,,OVC037,0.01,0.00,VWS V14.01,2013-10-17 00:01:00,
2013-10-16 19:06:00,49.0,43.4,29.87,NW,305,3.0,3.0,81,0.00,,OVC037,0.01,0.00,VWS V14.01,2013-10-17 00:06:00,
2013-10-16 19:11:00,49.0,43.4,29.87,WNW,294,1.0,4.0,81,0.00,,OVC037,0.01,0.00,VWS V14.01,2013-10-17 00:11:00,
2013-10-16 19:16:00,48.9,43.3,29.87,WNW,283,0.0,5.0,81,0.00,,OVC037,0.01,0.00,VWS V14.01,2013-10-17 00:16:00,
2013-10-16 19:21:00,48.8,43.2,29.87,NW,310,1.0,1.0,81,0.00,,OVC037,0.01,0.00,VWS V14.01,2013-10-17 00:21:00,
2013-10-16 19:26:00,48.7,43.5,29.87,NW,312,2.0,3.0,82,0.00,,OVC037,0.01,0.00,VWS V14.01,2013-10-17 00:26:00,
2013-10-16 19:31:00,48.7,43.5,29.87,NW,311,1.0,1.0,82,0.00,,OVC032,0.01,0.00,VWS V14.01,2013-10-17 00:31:00,
2013-10-16 19:36:00,48.6,43.4,29.87,NW,311,0.0,2.0,82,0.00,,OVC032,0.01,0.00,VWS V14.01,2013-10-17 00:36:00,
2013-10-16 19:41:00,48.5,43.3,29.87,NNW,338,3.0,9.0,82,0.00,,OVC032,0.01,0.00,VWS V14.01,2013-10-17 00:41:00,
2013-10-16 19:46:00,48.4,42.8,29.87,WNW,300,0.0,9.0,81,0.00,,OVC032,0.01,0.00,VWS V14.01,2013-10-17 00:46:00,
2013-10-16 19:51:00,48.3,42.8,29.88,NW,320,2.0,4.0,81,0.00,,OVC032,0.01,0.00,VWS V14.01,2013-10-17 00:51:00,
2013-10-16 19:56:00,48.1,42.5,29.88,NW,319,1.0,5.0,81,0.00,,OVC032,0.01,0.00,VWS V14.01,2013-10-17 00:56:00,
2013-10-16 20:01:00,48.1,42.5,29.88,NNW,327,3.0,3.0,81,0.00,,OVC032,0.01,0.00,VWS V14.01,2013-10-17 01:01:00,
2013-10-16 20:06:00,48.0,42.1,29.88,NW,317,2.0,5.0,80,0.00,,OVC032,0.01,0.00,VWS V14.01,2013-10-17 01:06:00,
2013-10-16 20:11:00,47.9,42.0,29.89,NNW,335,0.0,1.0,80,0.00,,OVC032,0.01,0.00,VWS V14.01,2013-10-17 01:11:00,
2013-10-16 20:16:00,47.8,42.3,29.89,NNW,341,0.0,4.0,81,0.00,,OVC032,0.01,0.00,VWS V14.01,2013-10-17 01:16:00,
2013-10-16 20:21:00,47.8,42.3,29.89,NNW,338,2.0,3.0,81,0.00,,OVC032,0.01,0.00,VWS V14.01,2013-10-17 01:21:00,
2013-10-16 20:26:00,47.7,42.2,29.89,WNW,290,0.0,4.0,81,0.00,,OVC032,0.01,0.00,VWS V14.01,2013-10-17 01:26:00,
2013-10-16 20:31:00,47.6,42.1,29.89,WNW,290,0.0,1.0,81,0.00,,OVC034,0.01,0.00,VWS V14.01,2013-10-17 01:31:00,
2013-10-16 20:36:00,47.6,42.4,29.89,North,5,3.0,3.0,82,0.00,,OVC034,0.01,0.00,VWS V14.01,2013-10-17 01:36:00,
2013-10-16 20:41:00,47.6,42.1,29.89,West,279,0.0,6.0,81,0.00,,OVC034,0.01,0.00,VWS V14.01,2013-10-17 01:41:00,
2013-10-16 20:46:00,47.5,41.7,29.89,NNW,327,1.0,6.0,80,0.00,,OVC032,0.01,0.00,VWS V14.01,2013-10-17 01:46:00,
2013-10-16 20:51:00,47.4,41.5,29.89,NNW,331,0.0,1.0,80,0.00,,OVC032,0.01,0.00,VWS V14.01,2013-10-17 01:51:00,
2013-10-16 20:56:00,47.4,41.5,29.89,NNW,329,0.0,2.0,80,0.00,,OVC032,0.01,0.00,VWS V14.01,2013-10-17 01:56:00,
2013-10-16 21:01:00,47.3,41.5,29.89,NW,316,0.0,1.0,80,0.00,,OVC032,0.01,0.00,VWS V14.01,2013-10-17 02:01:00,
2013-10-16 21:06:00,47.3,41.5,29.89,NW,317,0.0,3.0,80,0.00,,OVC032,0.01,0.00,VWS V14.01,2013-10-17 02:06:00,
2013-10-16 21:11:00,47.2,41.4,29.89,NW,317,0.0,0.0,80,0.00,,OVC032,0.01,0.00,VWS V14.01,2013-10-17 02:11:00,
2013-10-16 21:16:00,47.2,41.4,29.89,NW,317,0.0,1.0,80,0.00,,OVC032,0.01,0.00,VWS V14.01,2013-10-17 02:16:00,
2013-10-16 21:21:00,47.2,41.4,29.89,NW,317,1.0,1.0,80,0.00,,OVC032,0.01,0.00,VWS V14.01,2013-10-17 02:21:00,
2013-10-16 21:26:00,47.1,41.6,29.89,NW,317,0.0,2.0,81,0.00,,OVC032,0.01,0.00,VWS V14.01,2013-10-17 02:26:00,
2013-10-16 21:31:00,47.0,41.2,29.89,NW,317,0.0,0.0,80,0.00,,OVC032,0.01,0.00,VWS V14.01,2013-10-17 02:31:00,
2013-10-16 21:36:00,47.0,41.2,29.89,NW,317,0.0,1.0,80,0.00,,OVC032,0.01,0.00,VWS V14.01,2013-10-17 02:36:00,
2013-10-16 21:41:00,46.9,41.1,29.89,NW,317,0.0,0.0,80,0.00,,OVC032,0.01,0.00,VWS V14.01,2013-10-17 02:41:00,
2013-10-16 21:46:00,46.9,41.4,29.89,NW,317,0.0,1.0,81,0.00,,OVC030,0.01,0.00,VWS V14.01,2013-10-17 02:46:00,
2013-10-16 21:51:00,46.9,41.1,29.89,NW,317,0.0,0.0,80,0.00,,OVC030,0.01,0.00,VWS V14.01,2013-10-17 02:51:00,
2013-10-16 21:56:00,46.9,41.4,29.89,NW,317,0.0,2.0,81,0.00,,OVC030,0.01,0.00,VWS V14.01,2013-10-17 02:56:00,
2013-10-16 22:01:00,46.8,41.3,29.89,NW,317,0.0,0.0,81,0.00,,OVC030,0.01,0.00,VWS V14.01,2013-10-17 03:01:00,
2013-10-16 22:06:00,46.8,41.3,29.88,NW,317,0.0,0.0,81,0.00,,OVC030,0.01,0.00,VWS V14.01,2013-10-17 03:06:00,
2013-10-16 22:11:00,46.8,41.6,29.88,NW,317,0.0,0.0,82,0.00,,OVC030,0.01,0.00,VWS V14.01,2013-10-17 03:11:00,
2013-10-16 22:16:00,46.7,41.5,29.89,NW,317,0.0,0.0,82,0.00,,OVC030,0.01,0.00,VWS V14.01,2013-10-17 03:16:00,
2013-10-16 22:21:00,46.7,41.5,29.88,NW,317,0.0,0.0,82,0.00,,OVC030,0.01,0.00,VWS V14.01,2013-10-17 03:21:00,
2013-10-16 22:26:00,46.7,41.8,29.88,NW,317,0.0,0.0,83,0.00,,OVC030,0.01,0.00,VWS V14.01,2013-10-17 03:26:00,
2013-10-16 22:31:00,46.6,41.7,29.88,NW,317,0.0,0.0,83,0.00,,OVC028,0.01,0.00,VWS V14.01,2013-10-17 03:31:00,
2013-10-16 22:36:00,46.6,41.7,29.89,NW,317,0.0,0.0,83,0.00,,OVC028,0.01,0.00,VWS V14.01,2013-10-17 03:36:00,
2013-10-16 22:41:00,46.5,41.6,29.88,NW,317,0.0,0.0,83,0.00,,OVC028,0.01,0.00,VWS V14.01,2013-10-17 03:41:00,
2013-10-16 22:46:00,46.5,41.6,29.88,NW,317,0.0,0.0,83,0.00,,OVC028,0.01,0.00,VWS V14.01,2013-10-17 03:46:00,
2013-10-16 22:51:00,46.5,41.9,29.88,NW,317,0.0,0.0,84,0.00,,OVC028,0.01,0.00,VWS V14.01,2013-10-17 03:51:00,
2013-10-16 22:56:00,46.4,41.8,29.88,NW,317,0.0,0.0,84,0.00,,OVC028,0.01,0.00,VWS V14.01,2013-10-17 03:56:00,
2013-10-16 23:01:00,46.4,41.8,29.88,NW,317,0.0,0.0,84,0.00,,OVC028,0.01,0.00,VWS V14.01,2013-10-17 04:01:00,
2013-10-16 23:06:00,46.4,41.8,29.89,NW,317,0.0,1.0,84,0.00,,OVC028,0.01,0.00,VWS V14.01,2013-10-17 04:06:00,
2013-10-16 23:11:00,46.3,41.7,29.89,NW,317,0.0,0.0,84,0.00,,OVC028,0.01,0.00,VWS V14.01,2013-10-17 04:11:00,
2013-10-16 23:16:00,46.3,41.7,29.89,NW,317,0.0,0.0,84,0.00,,OVC028,0.01,0.00,VWS V14.01,2013-10-17 04:16:00,
2013-10-16 23:21:00,46.3,41.7,29.89,NW,317,0.0,0.0,84,0.00,,OVC028,0.01,0.00,VWS V14.01,2013-10-17 04:21:00,
2013-10-16 23:26:00,46.3,41.7,29.89,NW,317,0.0,1.0,84,0.00,,OVC028,0.01,0.00,VWS V14.01,2013-10-17 04:26:00,
2013-10-16 23:31:00,46.3,41.7,29.89,NW,317,0.0,0.0,84,0.00,,OVC028,0.01,0.00,VWS V14.01,2013-10-17 04:31:00,
2013-10-16 23:36:00,46.2,41.6,29.88,NW,317,0.0,0.0,84,0.00,,OVC028,0.01,0.00,VWS V14.01,2013-10-17 04:36:00,
2013-10-16 23:41:00,46.2,41.6,29.89,NW,317,0.0,0.0,84,0.00,,OVC028,0.01,0.00,VWS V14.01,2013-10-17 04:41:00,
2013-10-16 23:46:00,46.2,41.6,29.89,NW,317,0.0,0.0,84,0.00,,OVC028,0.01,0.00,VWS V14.01,2013-10-17 04:46:00,
2013-10-16 23:51:00,46.1,41.8,29.89,NW,317,0.0,0.0,85,0.00,,OVC028,0.01,0.00,VWS V14.01,2013-10-17 04:51:00,
2013-10-16 23:56:00,46.1,41.8,29.88,NW,317,0.0,0.0,85,0.00,,OVC028,0.01,0.00,VWS V14.01,2013-10-17 04:56:00,